Showing default

HAMMER, 59148

Orbit data source: Space-Track

HAMMER, 59148 is a payload satellite owned by Open Cosmos (ES) in SSO that was launched on Mon, 04 Mar 2024 UTC via an FALCON 9 launch vehicle from the Air Force Western Test Range (AFWTR). Payload-class satellites include a variety of spacecraft equipped with specific instruments for various scientific and technological missions. These include communications satellites like Starlink; space stations such as the ISS; scientific satellites like the Hubble; Earth observation satellites from companies like Planet Labs, Umbra, and HawkEye 360; GPS; miniature CubeSats for education and research; and military/defense satellites.

Loading next visibility...
Identifier
59148, 2024-043BC
Orbit
SSO
Last TLE update
8 hours ago
Origin
Manufacturer
Open Cosmos
Mission
Operational Commercial Com/MetRO
Bus & Motor
CUBESAT 6U, Unknown motor
Mass
~10 kg wet, ~10 kg dry
Launch date (UTC)
2024-03-04 (1 year ago)
Launch vehicle
FALCON 9
Launch site
Air Force Western Test Range (AFWTR)
Object type
Payload
Rocket body
Debris
Shape & HBR
Box + 2 Pan, 1 m
Radar Cross Section
0.063 m², Medium (>0.1 m² and < 1m²)

Expand to show TLE details & history

TLE from 8 hours ago
0 HAMMER
1 59148U 24043BC  25183.91606385  .00008513  00000-0  24971-3 0  9990
2 59148  97.5110 316.3994 0008240   4.8007 355.3314 15.35398653 73978
Epoch: 2025-07-02T21:59Z
TLE epoch observation values (Epoch: 2025-07-02T21:59:07.916Z)
Latitude
-0°
Longitude
65.42611°
Altitude
457.228 km
Speed
7.641 km/s
True Right ascension
21h 05m 35s
True Declination
0° 00' 00"
Sunlit
Object was in full shadow at epoch
Visualization orbit readout
Latitude
-28.29871°
Longitude
69.80118°
Altitude
465.636 km
Speed
7.635 km/s
Apparent Right ascension
00h 43m 27s
Apparent Declination
-53° 04' 55"
Sunlit
Object is in full shadow
Visualization observer readout
Local Sidereal Time
17:26:31
Azimuth
130.608° SE
Elevation
-41.664°
Doppler factor
1
Orbital elements
Apogee altitude
462.318 km
Perigee altitude
451.055 km
Semi-major axis
6,834.824 km
Eccentricity
0.00082
Inclination
97.511°
RAAN
316.3994°
Arg. of periapsis
4.8007°
True anomaly
Unknown
Mean anomaly
355.3314°
Eccentric anomaly
Unknown
Mean motion
3.84107 °/min
Orbital period
93.72 mins
BSTAR
0.00024971
Loading maneuver chart data...
Loading SW <> Apogee altitude chart data...
Loading historical data...
Loading historical data...
Loading historical data...
Loading historical data...
Loading historical data...
Loading historical data...
Loading historical data...

HAMMER Visibility forecast

Observer location: undefined°, undefined°

Span
Click to sort rows by Start time (UTC) header in descending order
Start Az.
Max El. time (UTC)
Max El. Az.
Max El.
End time (UTC)
End Az.
5 mins2025-07-03 09:03:58.130Z180.201° SSW2025-07-03 09:05:58.130Z217.131° SW39.361°2025-07-03 09:08:58.130Z338.358° N
5 mins2025-07-03 22:00:58.130Z353.687° N2025-07-03 22:02:58.130Z287.24° WNW37.918°2025-07-03 22:05:58.130Z210.358° SW
|